Regional Weather Roundup
Issued by NWS

Home | Current Version | Previous Version | Text Only | Print | Product List | Glossary On
Versions: 1 2 3 4 5 6 7 8 9 10 11 12 13 14 15 16 17 18 19 20 21 22 23 24 25 26 27 28 29 30 31 32 33 34 35 36 37 38 39 40 41 42 43 44 45 46 47 48 49 50
000
ASUS42 KKEY 290310
RWRKEY

FLORIDA REGIONAL WEATHER ROUNDUP FOR THE FLORIDA KEYS
NATIONAL WEATHER SERVICE KEY WEST FLORIDA
1000 PM EST SUN DEC 28 2014

...SOUTH FLORIDA AND THE KEYS...

CITY           SKY/WX    TMP DP  RH WIND       PRES   REMARKS
FORT MYERS     PTCLDY    67  65  93 CALM      30.13R
SW REGIONAL AP CLEAR     66  64  93 CALM      30.14R
NAPLES         CLEAR     69  66  90 CALM      30.13R
MIAMI          PTCLDY    74  69  85 CALM      30.15R
WEST KENDALL   CLOUDY    72  69  90 CALM      30.15R
HOMESTEAD      MOCLDY    73  69  89 N2        30.15R
MARATHON       PTCLDY    75  71  87 E5        30.13R
BOCA CHICA NAS CLEAR     74  70  87 E8        30.12R
KEY WEST INTL  PTCLDY    76  70  82 E9        30.13R

...INTERNATIONAL WEATHER...

CITY           SKY/WX    TMP DP  RH WIND       PRES   REMARKS
NASSAU BAHAMAS PTCLDY    75  75 100 SE5       30.16R
CANCUN MEXICO  PTCLDY    79  73  83 SE7       30.07R
COZUMEL MEXICO CLEAR     70  70 100 SE3       30.06R

ADJACENT COASTAL WATERS...

STATION/POSITION TIME  SKY/WX   TEMP    WIND        PRES    WAVE
                                AIR SEA DIR/SP/G            HT/PER
                 (UTC)          (F)     (DEG/KT/KT) (MB)    (FT/S)
PULASKI SHOAL LI 0200            73     110/  8/  8 1019.4R
SAND KEY         0241            77     110/ 14/ 16 1019.8R
SOMBRERO KEY     0300            77     110/ 13/ 13 1021.0R
LONG KEY         0200            76 76  110/  8/  8 1020.7R
MOLASSES REEF    0300            77 78  100/  8/  9 1020.3R
FOWEY ROCKS      NOT AVBL
Buoy 42080       NOT AVBL

$$


USA.gov is the U.S. government's official web portal to all federal, state and local government web resources and services.